sat.trackr.live / text

‹ back to catalog

WEINA 1B

NORAD 43279 · 2018-034E

PAYLOAD ACTIVE UNKNOWN

§ Identity

Operator
Country
PRC
Launch date
2018-04-10
Launch site
JSC
Launch vehicle
Mass (kg)
RCS (m²)

External: N2YO · Heavens-Above · Gunter

§ Orbital elements

Epoch: 2026-09-09T05:14:56.711616Z

Period
107.03 min
Inclination
63.3925°
Eccentricity
0.0282487
Mean motion
13.45375607 rev/d
Perigee alt
878.4 km
Apogee alt
1,300.3 km
Semi-major
7,467.5 km
B*
7.3742e-5
RAAN
235.6817°
Arg perigee
8.0810°
Mean anomaly
352.4626°
Rev number
41,351

§ Raw data

WEINA 1B1 43279U 18034E   26252.21871194 -.00000035  00000+0  73742-4 0  99962 43279  63.3925 235.6817 0282487   8.0810 352.4626 13.45375607413518

JSON: /api/v1/satellites/43279 · /tle

For live sub-satellite position, see the globe view (requires WebGL).

§ Visibility from observer

Set your observer location to see the next 7 days of passes ≥ 10°. The values pass through the URL so the page stays shareable.

No JS? Fill the form by hand. The geolocation button needs JavaScript.